• In Hungary
  • List of Countries
  • For 7 days
  • Water Temperature
  • Satellite Maps
  • Weather Map
  • News
  • Weather Widgets
  • user-avatar
    Login

    Hourly Weather Andreevskiy

    Today, 27 May, Sunday

    Time Temperature Precipitation Wind Pressure Humidity
    00:00 +3°C° 0 mm 2 mps 751 mmHg 68%
    01:00 +3°C° 0 mm 2 mps 751 mmHg 70%
    02:00 +2°C° 0 mm 2 mps 751 mmHg 71%
    03:00 +2°C° 0 mm 2 mps 752 mmHg 72%
    04:00 +2°C° 0 mm 1 mps 752 mmHg 73%
    05:00 +3°C° 0 mm 2 mps 752 mmHg 68%
    06:00 +5°C° 0 mm 2 mps 752 mmHg 63%
    07:00 +7°C° 0 mm 2 mps 752 mmHg 58%
    08:00 +9°C° 0 mm 3 mps 752 mmHg 54%
    09:00 +11°C° 0 mm 4 mps 752 mmHg 50%
    10:00 +13°C° 0 mm 4 mps 751 mmHg 46%
    11:00 +14°C° 0 mm 5 mps 751 mmHg 46%
    12:00 +15°C° 0 mm 5 mps 751 mmHg 46%
    13:00 +16°C° 0 mm 5 mps 750 mmHg 46%
    14:00 +16°C° 0 mm 5 mps 750 mmHg 47%
    15:00 +16°C° 0 mm 5 mps 749 mmHg 49%
    16:00 +17°C° 0 mm 6 mps 749 mmHg 50%
    17:00 +16°C° 0 mm 5 mps 748 mmHg 55%
    18:00 +15°C° 0 mm 5 mps 748 mmHg 60%
    19:00 +14°C° 0 mm 4 mps 748 mmHg 66%
    20:00 +13°C° 0 mm 4 mps 747 mmHg 69%
    21:00 +11°C° 0 mm 4 mps 747 mmHg 73%
    22:00 +10°C° 0 mm 4 mps 747 mmHg 76%
    23:00 +10°C° 0 mm 4 mps 746 mmHg 75%

    Tomorrow, 28 May, Monday

    Time Temperature Precipitation Wind Pressure Humidity
    00:00 +9°C° 0 mm 5 mps 745 mmHg 73%
    01:00 +9°C° 0 mm 5 mps 745 mmHg 72%
    02:00 +9°C° 0.1 mm 5 mps 744 mmHg 72%
    03:00 +9°C° 0.1 mm 6 mps 743 mmHg 72%
    04:00 +9°C° 0.1 mm 6 mps 742 mmHg 73%
    05:00 +9°C° 0.4 mm 7 mps 741 mmHg 75%
    06:00 +9°C° 0.4 mm 7 mps 741 mmHg 77%
    07:00 +9°C° 0.4 mm 8 mps 740 mmHg 79%
    08:00 +9°C° 1.6 mm 7 mps 740 mmHg 83%
    09:00 +9°C° 1.6 mm 6 mps 740 mmHg 87%
    10:00 +8°C° 1.6 mm 5 mps 740 mmHg 91%
    11:00 +9°C° 0.3 mm 5 mps 740 mmHg 83%
    12:00 +12°C° 0.3 mm 4 mps 740 mmHg 76%
    13:00 +13°C° 0.3 mm 4 mps 741 mmHg 69%
    14:00 +13°C° 0.6 mm 4 mps 741 mmHg 69%
    15:00 +13°C° 0.6 mm 5 mps 741 mmHg 69%
    16:00 +13°C° 0.6 mm 5 mps 741 mmHg 70%
    17:00 +12°C° 0.4 mm 5 mps 741 mmHg 74%
    18:00 +10°C° 0.4 mm 5 mps 741 mmHg 78%
    19:00 +9°C° 0.4 mm 5 mps 742 mmHg 83%
    20:00 +7°C° 0.1 mm 4 mps 742 mmHg 85%
    21:00 +6°C° 0.1 mm 4 mps 742 mmHg 87%
    22:00 +5°C° 0.1 mm 4 mps 743 mmHg 89%
    23:00 +4°C° 0 mm 4 mps 743 mmHg 89%

    Day after tomorrow, 29 May, Tuesday

    Time Temperature Precipitation Wind Pressure Humidity
    00:00 +4°C° 0 mm 4 mps 743 mmHg 89%
    01:00 +3°C° 0 mm 4 mps 743 mmHg 90%
    02:00 +1°C° 0 mm 4 mps 743 mmHg 90%
    03:00 +1°C° 0 mm 4 mps 744 mmHg 90%
    04:00 +1°C° 0 mm 3 mps 744 mmHg 91%
    05:00 +1°C° 0 mm 4 mps 744 mmHg 86%
    06:00 +4°C° 0 mm 4 mps 744 mmHg 82%
    07:00 +5°C° 0 mm 5 mps 744 mmHg 78%
    08:00 +6°C° 0 mm 5 mps 744 mmHg 69%
    09:00 +7°C° 0 mm 6 mps 744 mmHg 61%
    10:00 +9°C° 0 mm 6 mps 744 mmHg 52%
    11:00 +9°C° 0.1 mm 6 mps 744 mmHg 51%
    12:00 +10°C° 0.1 mm 6 mps 744 mmHg 50%
    13:00 +10°C° 0.1 mm 6 mps 743 mmHg 49%
    14:00 +10°C° 0.1 mm 6 mps 743 mmHg 51%
    15:00 +10°C° 0.1 mm 6 mps 743 mmHg 54%
    16:00 +9°C° 0.1 mm 6 mps 743 mmHg 56%
    17:00 +9°C° 0.1 mm 5 mps 743 mmHg 63%
    18:00 +8°C° 0.1 mm 4 mps 743 mmHg 69%
    19:00 +8°C° 0.1 mm 3 mps 743 mmHg 76%
    20:00 +7°C° 0 mm 2 mps 743 mmHg 81%
    21:00 +6°C° 0 mm 1 mps 743 mmHg 86%
    22:00 +5°C° 0 mm 1 mps 743 mmHg 91%
    23:00 +5°C° 0 mm 1 mps 743 mmHg 92%

    30 May, Wednesday

    Time Temperature Precipitation Wind Pressure Humidity
    00:00 +4°C° 0 mm 1 mps 743 mmHg 92%
    01:00 +4°C° 0 mm 1 mps 743 mmHg 93%
    02:00 +4°C° 0 mm 1 mps 742 mmHg 94%
    03:00 +4°C° 0 mm 1 mps 742 mmHg 95%
    04:00 +4°C° 0 mm 1 mps 742 mmHg 96%
    05:00 +4°C° 0 mm 2 mps 742 mmHg 94%
    06:00 +6°C° 0 mm 2 mps 742 mmHg 92%
    07:00 +7°C° 0 mm 2 mps 742 mmHg 90%
    08:00 +9°C° 0 mm 2 mps 742 mmHg 86%
    09:00 +10°C° 0 mm 3 mps 742 mmHg 83%
    10:00 +11°C° 0 mm 3 mps 742 mmHg 79%
    11:00 +12°C° 0.1 mm 4 mps 741 mmHg 80%
    12:00 +13°C° 0.1 mm 4 mps 741 mmHg 80%
    13:00 +13°C° 0.1 mm 4 mps 740 mmHg 80%
    14:00 +14°C° 0.4 mm 5 mps 740 mmHg 81%
    15:00 +15°C° 0.4 mm 5 mps 739 mmHg 82%
    16:00 +15°C° 0.4 mm 5 mps 739 mmHg 84%
    17:00 +16°C° 0.4 mm 5 mps 738 mmHg 83%
    18:00 +16°C° 0.4 mm 5 mps 738 mmHg 82%
    19:00 +16°C° 0.4 mm 5 mps 738 mmHg 81%
    20:00 +15°C° 0 mm 5 mps 737 mmHg 82%
    21:00 +14°C° 0 mm 5 mps 737 mmHg 84%
    22:00 +13°C° 0 mm 5 mps 737 mmHg 86%
    23:00 +13°C° 0.1 mm 6 mps 736 mmHg 86%

    31 May, Thursday

    Time Temperature Precipitation Wind Pressure Humidity
    00:00 +13°C° 0.1 mm 6 mps 736 mmHg 87%
    01:00 +12°C° 0.1 mm 7 mps 735 mmHg 87%
    02:00 +12°C° 0.2 mm 7 mps 735 mmHg 88%
    03:00 +12°C° 0.2 mm 7 mps 735 mmHg 90%
    04:00 +12°C° 0.2 mm 7 mps 735 mmHg 91%
    05:00 +14°C° 0.6 mm 7 mps 735 mmHg 92%
    06:00 +14°C° 0.6 mm 7 mps 735 mmHg 92%
    07:00 +14°C° 0.6 mm 6 mps 735 mmHg 93%
    08:00 +15°C° 0.4 mm 6 mps 735 mmHg 93%
    09:00 +15°C° 0.4 mm 6 mps 735 mmHg 92%
    10:00 +15°C° 0.4 mm 6 mps 736 mmHg 91%
    11:00 +15°C° 0.7 mm 6 mps 735 mmHg 91%
    12:00 +16°C° 0.7 mm 5 mps 735 mmHg 90%
    13:00 +16°C° 0.7 mm 5 mps 735 mmHg 89%
    14:00 +17°C° 0.8 mm 4 mps 736 mmHg 90%
    15:00 +17°C° 0.8 mm 4 mps 736 mmHg 90%
    16:00 +17°C° 0.8 mm 4 mps 736 mmHg 90%
    17:00 +14°C° 0.9 mm 4 mps 736 mmHg 91%
    18:00 +13°C° 0.9 mm 4 mps 737 mmHg 91%
    19:00 +12°C° 0.9 mm 3 mps 737 mmHg 91%
    20:00 +11°C° 0.1 mm 3 mps 738 mmHg 92%
    21:00 +10°C° 0.1 mm 2 mps 739 mmHg 93%
    22:00 +9°C° 0.1 mm 2 mps 739 mmHg 93%
    23:00 +8°C° 0 mm 2 mps 740 mmHg 93%

    1 June, Friday

    Time Temperature Precipitation Wind Pressure Humidity
    00:00 +7°C° 0 mm 2 mps 740 mmHg 93%
    01:00 +6°C° 0 mm 2 mps 741 mmHg 92%
    02:00 +6°C° 0 mm 2 mps 741 mmHg 92%
    03:00 +7°C° 0 mm 1 mps 742 mmHg 92%
    04:00 +7°C° 0 mm 1 mps 742 mmHg 92%
    05:00 +7°C° 0 mm 1 mps 743 mmHg 89%
    06:00 +7°C° 0 mm 2 mps 743 mmHg 86%
    07:00 +8°C° 0 mm 2 mps 744 mmHg 84%
    08:00 +9°C° 0 mm 2 mps 744 mmHg 76%
    09:00 +10°C° 0 mm 2 mps 744 mmHg 69%
    10:00 +12°C° 0 mm 2 mps 744 mmHg 61%
    11:00 +13°C° 0 mm 2 mps 744 mmHg 58%
    12:00 +14°C° 0 mm 2 mps 744 mmHg 55%
    13:00 +15°C° 0 mm 2 mps 744 mmHg 52%
    14:00 +15°C° 0 mm 2 mps 744 mmHg 51%
    15:00 +16°C° 0 mm 2 mps 744 mmHg 49%
    16:00 +16°C° 0 mm 2 mps 744 mmHg 48%
    17:00 +15°C° 0 mm 2 mps 744 mmHg 54%
    18:00 +14°C° 0 mm 2 mps 744 mmHg 60%
    19:00 +12°C° 0 mm 3 mps 744 mmHg 66%
    20:00 +11°C° 0 mm 3 mps 744 mmHg 69%
    21:00 +10°C° 0 mm 3 mps 745 mmHg 73%
    22:00 +8°C° 0 mm 3 mps 745 mmHg 76%
    23:00 +8°C° 0 mm 3 mps 745 mmHg 78%
    Show more